Santiago, Dominican Republic

8:18 AM AST on May 24, 2018 (GMT -0400)
Cibao International

Weather History for MDST - October, 2012

Change the Weather History Date:

Friday, October 12, 2012

  Actual Average Record
Temperature  
Mean Temperature 81 °F -  
Max Temperature 93 °F 89 °F 95 °F (2015)
Min Temperature 69 °F 70 °F 68 °F (1996)
Cooling Degree Days 16    
Growing Degree Days 31 (Base 50)    
Moisture  
Dew Point 72 °F    
Average Humidity 77    
Maximum Humidity 100    
Minimum Humidity 41    
Precipitation  
Precipitation 0.00 in 0.15 in - ()
Sea Level Pressure  
Sea Level Pressure 29.89 in    
Wind  
Wind Speed 6 mph ()    
Max Wind Speed 15 mph    
Max Gust Speed -    
Visibility 5.8 miles    
Events Thunderstorm    
Averages and records for this station are not official NWS values.
T = Trace of Precipitation, MM = Missing Value Source: Averaged Metar Reports

Daily Weather History Graph

Daily Weather History Graph

Search for Another Location

Airport or City:

Astronomy

Oct. 12, 2012 Rise Set
Actual Time 6:36 AM AST 6:21 PM AST
Civil Twilight 6:14 AM AST 6:43 PM AST
Nautical Twilight 5:48 AM AST 7:09 PM AST
Astronomical Twilight 5:23 AM AST 7:34 PM AST
Moon 3:39 AM AST (10/12) 4:11 PM AST (10/12)
Length of Visible Light 12h 29m
Length of Day
11h 45m
Waning Crescent, 11% of the Moon is Illuminated
Oct 12
Waning Crescent
Oct 15
New
Oct 21
First Quarter
Oct 29
Full
Nov 6
Last Quarter

Hourly Weather History & Observations

Time (AST) Temp. Heat Index Dew Point Humidity Pressure Visibility Wind Dir Wind Speed Gust Speed Precip Events Conditions
12:00 AM 75.2 °F - 73.4 °F 94% 29.92 in 6.2 mi East 3.5 mph - N/A   Mostly Cloudy
1:00 AM 75.2 °F - 73.4 °F 94% 29.92 in 6.2 mi ESE 6.9 mph - N/A   Mostly Cloudy
2:00 AM 75.2 °F - 73.4 °F 94% 29.89 in 6.2 mi Calm Calm - N/A   Scattered Clouds
3:00 AM 73.4 °F - 73.4 °F 100% 29.86 in 6.2 mi Calm Calm - N/A   Scattered Clouds
4:00 AM 73.4 °F - 73.4 °F 100% 29.86 in 6.2 mi Calm Calm - N/A   Scattered Clouds
5:00 AM 75.2 °F - 75.2 °F 100% 29.89 in 6.2 mi Calm Calm - N/A   Scattered Clouds
7:00 AM 69.8 °F - 69.8 °F 100% 29.89 in - Calm Calm - N/A   Partly Cloudy
8:00 AM 73.4 °F - 73.4 °F 100% 29.92 in - South 4.6 mph - N/A   Scattered Clouds
9:00 AM 78.8 °F - 73.4 °F 83% 29.92 in 6.2 mi ESE 8.1 mph - N/A   Scattered Clouds
10:00 AM 82.4 °F 88.2 °F 73.4 °F 74% 29.92 in 6.2 mi ESE 11.5 mph - N/A   Partly Cloudy
11:00 AM 86 °F - 74 °F 59% 29.94 in 6 mi ESE 13.4 mph - -   Haze
11:00 AM 86.0 °F 93.4 °F 73.4 °F 66% 29.92 in 6.2 mi ESE 13.8 mph - N/A   Partly Cloudy
12:00 PM 87.8 °F 95.6 °F 73.4 °F 62% 29.92 in 6.2 mi ESE 15.0 mph - N/A   Partly Cloudy
1:00 PM 89.6 °F 96.2 °F 71.6 °F 55% 29.89 in 6.2 mi East 13.8 mph - N/A   Partly Cloudy
2:00 PM 91.4 °F 98.4 °F 71.6 °F 52% 29.86 in 6.2 mi East 15.0 mph - N/A   Partly Cloudy
3:00 PM 91.4 °F 98.4 °F 71.6 °F 52% 29.83 in 6.2 mi ESE 11.5 mph - N/A   Partly Cloudy
4:00 PM 91.4 °F 96.8 °F 69.8 °F 49% 29.83 in 6.2 mi East 11.5 mph - N/A   Partly Cloudy
5:00 PM 90 °F - 69 °F 41% 29.84 in 5 mi ESE 11.2 mph - - Thunderstorm Thunderstorm
5:00 PM 89.6 °F 94.7 °F 69.8 °F 52% 29.83 in 5.0 mi ESE 11.5 mph - N/A Thunderstorm Thunderstorm
6:00 PM 82.4 °F 87.2 °F 71.6 °F 70% 29.86 in 5.0 mi North 6.9 mph - N/A   Mostly Cloudy
7:00 PM 80.6 °F 85.4 °F 73.4 °F 79% 29.89 in 6.2 mi NW 8.1 mph - N/A   Mostly Cloudy
8:00 PM 79 °F - 74 °F 79% 29.93 in 4 mi WSW 8.9 mph - - Thunderstorm Thunderstorm
8:00 PM 78.8 °F - 73.4 °F 83% 29.92 in 3.7 mi WSW 11.5 mph - N/A Thunderstorm Thunderstorm
9:00 PM 75.2 °F - 71.6 °F 89% 29.95 in 6.2 mi SW 4.6 mph - N/A Thunderstorm Light Thunderstorm
10:00 PM 73.4 °F - 69.8 °F 88% 29.92 in 6.2 mi NW 4.6 mph - N/A   Mostly Cloudy
11:00 PM 73.4 °F - 69.8 °F 88% 29.92 in 6.2 mi SW 4.6 mph - N/A   Mostly Cloudy